Погода в Коммунаре

Россия / Волгоградская область     48°52′36″N   45°18′49″E
темп.,
°C
ветер,
м/с
пор.,
м/с
влажн.,
%
обл.,
%
осадки,
мм/ч
давл.,
гПа
погр.,
м
18 апреля, вс
вс1800:00+9зюз22845 0.0 102119
03:00+8с11855 0.0 102110
06:00+8юв11826 0.0 102011
09:00+13ююз2364100 0.0 1020531
12:00+16з1243100 0.0 10181717
15:00+17ссз2237100 0.0 10172048
18:00+16св2347100 0.0 1017159
21:00+14в235394 0.0 101786
19 апреля, пн
пн1900:00+13ююв3462100 0.0 1017111
03:00+12сз2376100 0.1 1016120
06:00+11ссз1184100 0.4 101678
09:00+11всв2385100 0.9 1016201
12:00+12вюв237498 0.0 1016433
15:00+16всв3262100 0.3 10151050
18:00+15в3563100 0.2 1015290
21:00+12всв3673100 0.2 1016180
20 апреля, вт
вт2000:00+11всв3678100 0.0 1016131
03:00+11всв4872100 0.0 1015224
06:00+11в61180100 0.0 1015377
09:00+13в91269100 0.0 1015702
12:00+14в101466100 0.1 1015940
15:00+13вюв111769100 0.1 1013861
18:00+16вюв121863100 0.3 10111124
21:00+14юв111967100 0.4 1013897
21 апреля, ср
ср2100:00+13юв81671100 0.5 1013855
03:00+11вюв71280100 7.1 1014628
06:00+10вюв91385100 7.1 1015459
09:00+11ююв81289100 7.1 1016512
12:00+14юз586799 0.2 10171232
15:00+14юз576299 0.2 10181007
18:00+13зсз347198 0.1 1020190
21:00+12юв2374100 0.1 102252
22 апреля, чт
чт2200:00+12ю3476100 0.0 102296
03:00+11ю2279100 0.0 102339
06:00+11юв1179100 0.0 102315
09:00+13ю1173100 0.1 1024277
12:00+15юв3364100 0.5 1024897
15:00+15юв4465100 1.8 1024901
18:00+13вюв557349 0.6 1024594
21:00+9вюв578624 0.6 1025345